Date String (YYYY-MM-DD hh:mm:ss) UTC,Instrument flags,absolute air pressure of the measurement (hPa),sample flow rate (lpm),inlet stack bypass flow (lpm),air temperature of the measurement (°C),ambient temperature measured by the external sensor (°C),aerosol sample conditioner tube jacket temperature (°C),OPC LED temperature (°C),internal box temperature (°C),relative humidity of the measurement (%),span deviation,mass concentration of particles derived from Lorenz-Mie calculation of OPC scattering (μg/m³),mass concentration of particles derived from Lorenz-Mie calculation of OPC scattering (μg/m³),mass concentration of particles derived from Lorenz-Mie calculation of OPC scattering (μg/m³)
DateTimeUTC,F1_M11,P_M11,Q1_M11,Q2_M11,T1_M11,T2_M11,T3_M11,T4_M11,T5_M11,U1_M11,ZSPAN_M11,X2_M11,X0_M11,X1_M11
2024-02-17 21:00:00,SystemResetWarning,0832.7,4.99,000.00,018.3,017.7,000.0,026.9,020.0,13.2,0002.5,0006.54,0009.73,0006.15
2024-02-17 21:01:00,SystemResetWarning,0832.7,5.01,000.00,018.3,017.7,000.0,026.9,020.0,13.5,0002.4,0006.55,0009.76,0006.15
2024-02-17 21:02:00,SystemResetWarning,0832.7,5.02,000.00,018.3,017.7,000.0,026.9,020.0,13.7,0001.6,0006.59,0009.78,0006.17
2024-02-17 21:03:00,SystemResetWarning,0832.7,4.99,000.00,018.3,017.7,000.0,026.9,020.0,13.4,0001.9,0006.62,0009.80,0006.21
2024-02-17 21:04:00,SystemResetWarning,0832.7,4.99,000.00,018.3,017.7,000.0,027.0,020.0,13.5,0001.6,0006.61,0009.62,0006.23
2024-02-17 21:05:00,SystemResetWarning,0832.7,5.00,000.00,018.3,017.7,000.0,027.0,020.0,12.8,0001.7,0006.61,0009.02,0006.24
2024-02-17 21:06:00,SystemResetWarning,0832.6,5.01,000.00,018.3,017.7,000.0,027.0,020.0,13.5,0001.5,0006.60,0009.17,0006.24
2024-02-17 21:07:00,SystemResetWarning,0832.7,5.01,000.00,018.4,017.7,000.0,027.0,020.0,14.2,0001.1,0006.59,0009.79,0006.23
2024-02-17 21:08:00,SystemResetWarning,0832.7,4.99,000.00,018.4,017.7,000.0,027.0,020.0,13.2,0001.1,0006.55,0010.35,0006.19
2024-02-17 21:09:00,SystemResetWarning,0832.7,4.99,000.00,018.4,017.7,000.0,027.0,020.0,13.5,0001.3,0006.51,0011.11,0006.17
2024-02-17 21:10:00,SystemResetWarning,0832.6,4.99,000.00,018.4,017.7,000.0,027.0,020.0,13.4,0001.5,0006.49,0011.09,0006.14
2024-02-17 21:11:00,SystemResetWarning,0832.7,5.00,000.00,018.4,017.7,000.0,027.0,020.0,13.8,0001.0,0006.49,0011.09,0006.14
2024-02-17 21:12:00,SystemResetWarning,0832.7,5.01,000.00,018.4,017.7,000.0,027.0,020.0,13.2,0001.0,0006.49,0011.19,0006.12
2024-02-17 21:13:00,SystemResetWarning,0832.7,5.00,000.00,018.4,017.7,000.0,027.0,020.0,13.4,0001.5,0006.44,0011.55,0006.07
2024-02-17 21:14:00,SystemResetWarning,0832.6,4.99,000.00,018.4,017.7,000.0,027.0,020.0,13.3,0001.6,0006.37,0011.65,0006.00
2024-02-17 21:15:00,SystemResetWarning,0832.7,4.99,000.00,018.4,017.7,000.0,026.9,020.0,13.6,0002.0,0006.33,0011.58,0005.94
2024-02-17 21:16:00,SystemResetWarning,0832.6,4.98,000.00,018.4,017.7,000.0,026.9,020.0,13.3,0002.9,0006.28,0011.49,0005.91
2024-02-17 21:17:00,SystemResetWarning,0832.7,5.00,000.00,018.4,017.7,000.0,026.9,020.0,13.1,0003.0,0006.22,0012.25,0005.86
2024-02-17 21:18:00,SystemResetWarning,0832.6,5.01,000.00,018.3,017.7,000.0,026.9,020.0,13.1,0003.4,0006.15,0011.77,0005.80
2024-02-17 21:19:00,SystemResetWarning,0832.6,5.01,000.00,018.3,017.7,000.0,026.9,020.0,13.1,0003.2,0006.13,0011.00,0005.78
2024-02-17 21:20:00,SystemResetWarning,0832.6,5.00,000.00,018.3,017.7,000.0,026.9,020.0,12.9,0003.1,0006.15,0010.21,0005.79
2024-02-17 21:21:00,SystemResetWarning,0832.6,4.99,000.00,018.3,017.7,000.0,026.9,020.0,13.1,0003.1,0006.15,0010.25,0005.78
2024-02-17 21:22:00,SystemResetWarning,0832.5,5.00,000.00,018.3,017.7,000.0,026.9,020.0,13.0,0003.4,0006.13,0010.37,0005.76
2024-02-17 21:23:00,SystemResetWarning,0832.6,4.99,000.00,018.3,017.7,000.0,027.0,020.0,13.4,0003.5,0006.13,0010.40,0005.74
2024-02-17 21:24:00,SystemResetWarning,0832.5,5.01,000.00,018.3,017.7,000.0,026.9,020.0,13.6,0003.5,0006.09,0009.98,0005.72
2024-02-17 21:25:00,SystemResetWarning,0832.6,5.00,000.00,018.3,017.7,000.0,026.9,020.0,13.4,0003.4,0006.08,0009.88,0005.69
2024-02-17 21:26:00,SystemResetWarning,0832.5,4.99,000.00,018.3,017.7,000.0,026.9,020.0,12.5,0003.0,0006.07,0009.85,0005.65
2024-02-17 21:27:00,SystemResetWarning,0832.5,4.99,000.00,018.3,017.7,000.0,026.9,020.0,12.6,0002.8,0006.03,0009.78,0005.60
2024-02-17 21:28:00,SystemResetWarning,0832.5,5.00,000.00,018.3,017.7,000.0,027.0,020.0,12.8,0002.5,0006.01,0008.96,0005.58
2024-02-17 21:29:00,SystemResetWarning,0832.5,5.00,000.00,018.3,017.7,000.0,027.0,020.0,13.0,0001.3,0006.00,0009.16,0005.55
2024-02-17 21:30:00,SystemResetWarning,0832.5,5.01,000.00,018.3,017.7,000.0,027.0,020.0,13.7,0000.0,0005.98,0009.21,0005.51
2024-02-17 21:31:00,SystemResetWarning,0832.6,5.01,000.00,018.3,017.7,000.0,027.0,020.0,12.5,0001.0,0005.94,0009.19,0005.48
2024-02-17 21:32:00,SystemResetWarning,0832.6,5.00,000.00,018.3,017.7,000.0,027.0,020.0,12.5,0001.8,0005.89,0009.02,0005.45
2024-02-17 21:33:00,SystemResetWarning,0832.5,5.00,000.00,018.3,017.7,000.0,027.0,020.0,12.4,0000.3,0005.83,0008.84,0005.41
2024-02-17 21:34:00,SystemResetWarning,0832.5,4.99,000.00,018.4,017.7,000.0,027.0,020.0,12.4,0000.0,0005.75,0009.32,0005.35
2024-02-17 21:35:00,SystemResetWarning,0832.6,5.00,000.00,018.4,017.7,000.0,027.0,020.0,12.7,0000.0,0005.73,0009.36,0005.29
2024-02-17 21:36:00,SystemResetWarning,0832.5,4.99,000.00,018.4,017.7,000.0,027.0,020.0,12.6,0000.3,0005.67,0009.28,0005.25
2024-02-17 21:37:00,SystemResetWarning,0832.5,5.00,000.00,018.4,017.7,000.0,027.0,020.0,12.4,0001.9,0005.58,0009.15,0005.20
2024-02-17 21:38:00,SystemResetWarning,0832.5,5.01,000.00,018.4,017.7,000.0,027.0,020.0,12.2,0001.6,0005.53,0009.16,0005.16
2024-02-17 21:39:00,SystemResetWarning,0832.6,5.01,000.00,018.4,017.7,000.0,027.0,020.0,12.1,0002.1,0005.49,0009.69,0005.12
2024-02-17 21:40:00,SystemResetWarning,0832.5,4.99,000.00,018.4,017.7,000.0,027.0,020.0,12.2,0002.3,0005.42,0009.50,0005.06
2024-02-17 21:41:00,SystemResetWarning,0832.5,5.00,000.00,018.4,017.7,000.0,027.0,020.0,12.3,0002.7,0005.32,0009.36,0004.98
2024-02-17 21:42:00,SystemResetWarning,0832.5,5.00,000.00,018.4,017.7,000.0,027.0,020.0,13.2,0002.8,0005.22,0009.28,0004.89
2024-02-17 21:43:00,SystemResetWarning,0832.5,4.99,000.00,018.4,017.7,000.0,027.0,020.0,13.0,0001.4,0005.13,0009.19,0004.81
2024-02-17 21:44:00,SystemResetWarning,0832.5,5.00,000.00,018.4,017.7,000.0,027.0,020.0,13.3,0003.0,0005.07,0009.08,0004.75
2024-02-17 21:45:00,SystemResetWarning,0832.5,5.01,000.00,018.4,017.7,000.0,027.0,020.0,13.0,0000.2,0005.05,0008.70,0004.72
2024-02-17 21:46:00,SystemResetWarning,0832.5,5.01,000.00,018.4,017.7,000.0,027.0,020.0,12.7,0000.0,0004.98,0008.31,0004.68
2024-02-17 21:47:00,SystemResetWarning,0832.5,5.00,000.00,018.4,017.7,000.0,027.0,020.0,12.7,0000.0,0004.91,0008.09,0004.65
2024-02-17 21:48:00,SystemResetWarning,0832.5,5.00,000.00,018.4,017.7,000.0,027.0,020.0,12.6,0000.0,0004.90,0008.01,0004.64
2024-02-17 21:49:00,SystemResetWarning,0832.5,4.99,000.00,018.4,017.7,000.0,027.0,020.0,12.7,0000.0,0004.87,0008.00,0004.62
2024-02-17 21:50:00,SystemResetWarning,0832.5,5.00,000.00,018.4,017.7,000.0,027.0,020.0,13.0,0000.0,0004.86,0007.49,0004.61
2024-02-17 21:51:00,SystemResetWarning,0832.5,5.02,000.00,018.4,017.7,000.0,027.0,020.0,13.1,0000.0,0004.87,0007.54,0004.61
2024-02-17 21:52:00,SystemResetWarning,0832.5,5.00,000.00,018.4,017.7,000.0,027.0,020.0,13.2,0000.0,0004.90,0007.62,0004.64
2024-02-17 21:53:00,SystemResetWarning,0832.5,5.00,000.00,018.4,017.7,000.0,027.0,020.0,12.3,0000.0,0004.95,0007.70,0004.67
2024-02-17 21:54:00,SystemResetWarning,0832.5,5.00,000.00,018.4,017.7,000.0,027.0,020.0,12.9,0000.0,0004.98,0007.71,0004.70
2024-02-17 21:55:00,SystemResetWarning,0832.5,5.00,000.00,018.4,017.7,000.0,027.0,020.0,13.0,0000.0,0005.02,0007.83,0004.71
2024-02-17 21:56:00,SystemResetWarning,0832.4,5.00,000.00,018.4,017.7,000.0,027.0,020.0,12.5,0000.0,0005.03,0007.88,0004.72
2024-02-17 21:57:00,SystemResetWarning,0832.4,4.99,000.00,018.4,017.7,000.0,027.0,020.0,13.0,0000.0,0005.07,0007.94,0004.76
2024-02-17 21:58:00,SystemResetWarning,0832.4,5.00,000.00,018.4,017.7,000.0,027.0,020.0,12.9,0000.0,0005.16,0008.16,0004.81
2024-02-17 21:59:00,SystemResetWarning,0832.3,5.00,000.00,018.4,017.8,000.0,027.0,020.0,13.1,0000.0,0005.22,0008.36,0004.84
